GW2973 Weather Reports


time (UTC)temp
C
wind
direction
speed
KPH
gust
KPH
rain 1hr
cm
rain 24hr
cm
rain mn
cm
humidity
%
barometer
mb
20260507015340 17 149 1.6 3.2 0.00 0.00 0.00 77 1024.9
20260507014837 17 249 8.0 14.5 0.00 0.00 0.00 77 1025.0
20260507014333 17 232 12.9 17.7 0.00 0.00 0.00 76 1025.0
20260507013830 17 201 6.4 11.3 0.00 0.00 0.00 76 1024.8
20260507013327 17 216 6.4 6.4 0.00 0.00 0.00 74 1024.9
20260507012825 17 197 1.6 3.2 0.00 0.00 0.00 75 1025.0
20260507012320 18 195 3.2 4.8 0.00 0.00 0.00 74 1025.2
20260507011818 18 240 6.4 9.7 0.00 0.00 0.00 73 1024.9
20260507011314 18 205 4.8 4.8 0.00 0.00 0.00 72 1024.9
20260507010814 18 302 0.0 0.0 0.00 0.00 0.00 73 1024.7
20260507010310 18 181 4.8 6.4 0.00 0.00 0.00 71 1024.8
20260507005807 18 175 4.8 6.4 0.00 0.00 0.00 72 1024.8
20260507005305 18 94 3.2 3.2 0.00 0.00 0.00 72 1024.9
20260507004800 19 294 6.4 6.4 0.00 0.00 0.00 71 1024.9
20260507004258 20 225 4.8 6.4 0.00 0.00 0.00 71 1024.9
20260507003754 19 258 0.0 1.6 0.00 0.00 0.00 72 1024.9
20260507003249 20 213 3.2 3.2 0.00 0.00 0.00 70 1024.8
20260507002745 20 268 3.2 4.8 0.00 0.00 0.00 72 1025.0
20260507002242 20 222 3.2 4.8 0.00 0.00 0.00 72 1024.9
20260507001739 20 52 3.2 4.8 0.00 0.00 0.00 71 1025.0
20260507001236 20 123 3.2 9.7 0.00 0.00 0.00 71 1025.0
20260507000732 20 35 3.2 3.2 0.00 0.00 0.00 68 1024.8
20260507000228 20 210 3.2 3.2 0.00 0.00 0.00 68 1025.0
20260506235725 20 308 3.2 4.8 0.00 0.00 0.00 68 1025.0
20260506235221 20 215 3.2 4.8 0.00 0.00 0.00 69 1024.9
20260506234718 21 254 4.8 6.4 0.00 0.00 0.00 67 1025.1
20260506234215 20 354 3.2 3.2 0.00 0.00 0.00 69 1025.0
20260506233713 20 170 6.4 9.7 0.00 0.00 0.00 68 1025.1
20260506233209 20 171 3.2 4.8 0.00 0.00 0.00 70 1024.8
20260506232706 21 56 1.6 3.2 0.00 0.00 0.00 69 1024.9
20260506232200 20 9 6.4 9.7 0.00 0.00 0.00 69 1025.0
20260506231658 20 354 1.6 1.6 0.00 0.00 0.00 69 1025.1
20260506231156 20 302 1.6 3.2 0.00 0.00 0.00 70 1025.2
20260506230653 21 309 4.8 6.4 0.00 0.00 0.00 69 1025.2
20260506230149 21 183 4.8 6.4 0.00 0.00 0.00 69 1025.3
20260506225646 21 17 6.4 6.4 0.00 0.00 0.00 69 1025.2
20260506225143 20 46 3.2 4.8 0.00 0.00 0.00 69 1025.3
20260506224639 21 15 4.8 6.4 0.00 0.00 0.00 69 1025.5
20260506224136 21 235 8.0 11.3 0.00 0.00 0.00 68 1025.4
20260506223632 21 289 6.4 6.4 0.00 0.00 0.00 66 1025.2
20260506223128 21 268 4.8 4.8 0.00 0.00 0.00 64 1025.2
20260506222626 21 341 3.2 4.8 0.00 0.00 0.00 64 1025.3
20260506222122 21 46 1.6 3.2 0.00 0.00 0.00 64 1025.5
20260506221620 21 51 3.2 4.8 0.00 0.00 0.00 63 1025.4
20260506221117 21 27 4.8 6.4 0.00 0.00 0.00 63 1025.5
20260506220614 21 28 3.2 4.8 0.00 0.00 0.00 63 1025.5
20260506220109 21 298 3.2 3.2 0.00 0.00 0.00 63 1025.6
20260506215606 21 35 3.2 3.2 0.00 0.00 0.00 62 1025.7
20260506215101 22 357 3.2 4.8 0.00 0.00 0.00 62 1025.6
20260506214559 21 48 1.6 1.6 0.00 0.00 0.00 60 1025.8
20260506214056 21 4 1.6 3.2 0.00 0.00 0.00 61 1025.9
20260506213554 21 9 1.6 1.6 0.00 0.00 0.00 61 1025.9
20260506213051 21 309 0.0 0.0 0.00 0.00 0.00 63 1025.8
20260506212547 21 290 3.2 4.8 0.00 0.00 0.00 62 1026.0
20260506212042 21 27 4.8 4.8 0.00 0.00 0.00 63 1026.0
20260506211539 21 65 3.2 4.8 0.00 0.00 0.00 61 1026.1
20260506211036 21 73 1.6 3.2 0.00 0.00 0.00 63 1026.3
20260506210532 21 42 0.0 0.0 0.00 0.00 0.00 63 1026.3
20260506210029 21 26 1.6 1.6 0.00 0.00 0.00 63 1026.2
20260506205526 21 21 4.8 6.4 0.00 0.00 0.00 63 1026.1
20260506205021 21 22 1.6 3.2 0.00 0.00 0.00 63 1026.4
20260506204519 21 59 4.8 6.4 0.00 0.00 0.00 62 1026.4
20260506204016 20 5 1.6 3.2 0.00 0.00 0.00 63 1026.2
20260506203514 20 17 3.2 6.4 0.00 0.00 0.00 63 1026.4
20260506203010 20 49 1.6 1.6 0.00 0.00 0.00 65 1026.3
20260506202507 20 291 1.6 1.6 0.00 0.00 0.00 64 1026.6
20260506201958 20 19 3.2 3.2 0.00 0.00 0.00 64 1026.6
20260506201455 20 64 1.6 3.2 0.00 0.00 0.00 67 1026.6
20260506200947 20 51 3.2 3.2 0.00 0.00 0.00 66 1027.1
20260506200443 19 50 0.0 0.0 0.00 0.00 0.00 67 1026.8
20260506195939 19 45 1.6 1.6 0.00 0.00 0.00 68 1026.7
20260506195436 19 224 0.0 1.6 0.00 0.00 0.00 68 1026.9
20260506194933 19 66 1.6 1.6 0.00 0.00 0.00 69 1027.0
20260506194430 18 57 1.6 1.6 0.00 0.00 0.00 70 1027.0
20260506193927 18 36 3.2 3.2 0.00 0.00 0.00 70 1026.9
20260506193424 18 37 6.4 6.4 0.00 0.00 0.00 70 1026.9
20260506192915 18 35 3.2 3.2 0.00 0.00 0.00 71 1027.2
20260506192412 18 36 4.8 4.8 0.00 0.00 0.00 71 1027.3
20260506191909 18 38 1.6 1.6 0.00 0.00 0.00 71 1027.1
20260506191405 18 44 1.6 3.2 0.00 0.00 0.00 72 1027.3
20260506190902 18 44 3.2 4.8 0.00 0.00 0.00 73 1027.3
20260506190358 18 49 4.8 4.8 0.00 0.00 0.00 73 1027.2
20260506185855 18 49 6.4 11.3 0.00 0.00 0.00 73 1027.3
20260506185352 18 50 6.4 6.4 0.00 0.00 0.00 73 1027.3
20260506184849 18 55 1.6 3.2 0.00 0.00 0.00 74 1027.5
20260506184346 17 56 1.6 1.6 0.00 0.00 0.00 74 1027.5
20260506183844 18 57 3.2 4.8 0.00 0.00 0.00 73 1027.4
20260506183339 18 58 1.6 1.6 0.00 0.00 0.00 74 1027.4
20260506182836 17 58 0.0 0.0 0.00 0.00 0.00 75 1027.4
20260506182333 17 58 1.6 3.2 0.00 0.00 0.00 75 1027.6
20260506181831 17 63 0.0 1.6 0.00 0.00 0.00 74 1027.6
20260506181329 17 63 3.2 4.8 0.00 0.00 0.00 72 1027.3
20260506180826 17 63 3.2 3.2 0.00 0.00 0.00 72 1027.4
20260506180322 18 66 1.6 1.6 0.00 0.00 0.00 71 1027.6
20260506175818 17 66 1.6 3.2 0.00 0.00 0.00 73 1027.5
20260506175315 17 65 0.0 0.0 0.00 0.00 0.00 73 1027.5
20260506174812 17 66 0.0 0.0 0.00 0.00 0.00 72 1027.6
20260506174309 17 66 0.0 0.0 0.00 0.00 0.00 72 1027.5
20260506173807 17 65 0.0 0.0 0.00 0.00 0.00 73 1027.6
20260506173304 17 66 1.6 1.6 0.00 0.00 0.00 73 1027.5
20260506172801 17 65 0.0 0.0 0.00 0.00 0.00 73 1027.7
20260506172257 16 66 1.6 1.6 0.00 0.00 0.00 74 1027.6
20260506171755 17 66 0.0 0.0 0.00 0.00 0.00 72 1027.5
20260506171251 17 66 0.0 1.6 0.00 0.00 0.00 74 1027.4
20260506170749 16 65 0.0 0.0 0.00 0.00 0.00 78 1027.8
20260506170245 15 65 1.6 1.6 0.00 0.00 0.00 78 1027.7
20260506165744 16 65 0.0 0.0 0.00 0.00 0.00 78 1027.5
20260506165241 16 65 1.6 1.6 0.00 0.00 0.00 76 1027.8
20260506164738 17 65 0.0 0.0 0.00 0.00 0.00 74 1027.7
20260506164235 16 65 0.0 0.0 0.00 0.00 0.00 77 1027.7
20260506163731 16 65 0.0 1.6 0.00 0.00 0.00 77 1027.8
20260506163226 16 66 0.0 0.0 0.00 0.00 0.00 79 1027.6
20260506162723 16 65 0.0 0.0 0.00 0.00 0.00 79 1027.8
20260506162220 15 66 0.0 0.0 0.00 0.00 0.00 79 1027.6
20260506161717 15 66 0.0 0.0 0.00 0.00 0.00 80 1027.7
20260506161215 15 66 0.0 0.0 0.00 0.00 0.00 81 1027.7
20260506160713 15 66 0.0 0.0 0.00 0.00 0.00 81 1027.9
20260506160209 15 55 1.6 1.6 0.00 0.00 0.00 81 1027.6
20260506155707 15 60 0.0 0.0 0.00 0.00 0.00 81 1027.8
20260506155204 14 65 0.0 0.0 0.00 0.00 0.00 84 1027.7
20260506153306 13 63 0.0 0.0 0.00 0.00 0.00 84 1027.6
20260506152803 13 63 0.0 0.0 0.00 0.00 0.00 84 1027.5
20260506152300 13 64 1.6 1.6 0.00 0.00 0.00 85 1027.5
20260506151759 13 63 0.0 1.6 0.00 0.00 0.00 85 1027.6
20260506151255 13 66 0.0 0.0 0.00 0.00 0.00 86 1027.6
20260506150751 13 63 0.0 0.0 0.00 0.00 0.00 87 1027.5
20260506150249 13 107 0.0 0.0 0.00 0.00 0.00 87 1027.5
20260506145746 13 78 0.0 1.6 0.00 0.00 0.00 87 1027.5
20260506145242 13 72 0.0 0.0 0.00 0.00 0.00 88 1027.6
20260506144740 12 44 1.6 3.2 0.00 0.00 0.00 88 1027.6
20260506144236 12 74 0.0 1.6 0.00 0.00 0.00 88 1027.4
20260506143734 12 70 1.6 1.6 0.00 0.00 0.00 89 1027.5
20260506143231 12 73 0.0 1.6 0.00 0.00 0.00 89 1027.6
20260506142730 12 103 0.0 1.6 0.00 0.00 0.00 89 1027.5
20260506142227 12 73 0.0 0.0 0.00 0.00 0.00 89 1027.3
20260506141725 12 72 0.0 0.0 0.00 0.00 0.00 89 1027.3
20260506141224 12 72 1.6 1.6 0.00 0.00 0.00 90 1027.3
20260506140721 12 30 0.0 1.6 0.00 0.00 0.00 90 1027.3
20260506140217 12 72 0.0 0.0 0.00 0.00 0.00 90 1027.4
20260506135714 12 72 0.0 0.0 0.00 0.00 0.00 90 1027.2
20260506135210 12 93 0.0 0.0 0.00 0.00 0.00 90 1027.1
20260506134707 12 83 0.0 0.0 0.00 0.00 0.00 90 1027.2
20260506134203 12 120 0.0 0.0 0.00 0.00 0.00 90 1026.9
20260506133701 12 73 0.0 0.0 0.00 0.00 0.00 90 1027.1
20260506133157 12 67 0.0 0.0 0.00 0.00 0.00 90 1026.8
20260506132655 12 66 0.0 0.0 0.00 0.00 0.00 91 1027.1
20260506132151 12 72 0.0 0.0 0.00 0.00 0.00 91 1026.7
20260506131649 12 94 0.0 0.0 0.00 0.00 0.00 91 1026.8
20260506131145 12 103 0.0 0.0 0.00 0.00 0.00 91 1026.7
20260506130642 11 70 0.0 0.0 0.00 0.00 0.00 92 1026.7
20260506130140 11 65 0.0 0.0 0.00 0.00 0.00 92 1026.6
20260506125638 11 69 0.0 0.0 0.00 0.00 0.00 92 1026.6
20260506125135 11 101 0.0 0.0 0.00 0.00 0.00 93 1026.6
20260506124633 11 75 0.0 0.0 0.00 0.00 0.00 93 1026.6
20260506124131 11 74 0.0 0.0 0.00 0.00 0.00 94 1026.5
20260506123628 11 107 0.0 0.0 0.00 0.00 0.00 94 1026.5
20260506123126 11 36 0.0 0.0 0.00 0.00 0.00 95 1026.5
20260506122622 11 119 0.0 0.0 0.00 0.00 0.00 95 1026.5
20260506122120 11 120 0.0 0.0 0.00 0.00 0.00 95 1026.7
20260506121618 10 133 0.0 0.0 0.00 0.00 0.00 95 1026.4
20260506121114 10 133 0.0 0.0 0.00 0.00 0.00 95 1026.4
20260506120612 10 133 0.0 0.0 0.00 0.00 0.00 95 1026.6
20260506120109 10 133 0.0 0.0 0.00 0.00 0.00 95 1026.5
20260506115608 10 133 0.0 0.0 0.00 0.00 0.00 95 1026.4
20260506115106 10 133 0.0 0.0 0.00 0.00 0.00 95 1026.1
20260506114602 11 133 0.0 0.0 0.00 0.00 0.00 95 1026.3
20260506114101 11 133 0.0 0.0 0.00 0.00 0.00 95 1026.4
20260506113558 11 133 0.0 0.0 0.00 0.00 0.00 95 1026.1
20260506113055 10 133 0.0 0.0 0.00 0.00 0.00 94 1026.2
20260506112552 10 133 0.0 0.0 0.00 0.00 0.00 94 1026.1
20260506112049 10 134 0.0 0.0 0.00 0.00 0.00 94 1026.1
20260506111547 10 134 0.0 0.0 0.00 0.00 0.00 94 1026.1
20260506111044 11 134 0.0 0.0 0.00 0.00 0.00 94 1026.4
20260506110542 11 134 0.0 0.0 0.00 0.00 0.00 94 1026.1
20260506110039 11 134 0.0 0.0 0.00 0.00 0.00 94 1026.0
20260506105535 11 134 0.0 0.0 0.00 0.00 0.00 94 1026.1
20260506105032 11 134 0.0 0.0 0.00 0.00 0.00 93 1025.8
20260506104530 11 134 0.0 0.0 0.00 0.00 0.00 93 1026.0
20260506104028 11 133 0.0 0.0 0.00 0.00 0.00 93 1026.0
20260506103525 11 133 0.0 0.0 0.00 0.00 0.00 93 1026.0
20260506103021 11 133 0.0 0.0 0.00 0.00 0.00 93 1026.0
20260506102520 11 134 0.0 0.0 0.00 0.00 0.00 93 1025.8
20260506102017 11 131 0.0 0.0 0.00 0.00 0.00 93 1026.1
20260506101513 11 128 0.0 0.0 0.00 0.00 0.00 93 1026.0
20260506101010 11 118 0.0 0.0 0.00 0.00 0.00 92 1026.0
20260506100509 11 118 0.0 0.0 0.00 0.00 0.00 92 1025.9
20260506100007 12 105 0.0 0.0 0.00 0.00 0.00 92 1025.7
20260506095505 12 120 0.0 0.0 0.00 0.00 0.00 92 1025.7
20260506095001 12 70 0.0 0.0 0.00 0.00 0.00 92 1026.0
20260506094459 12 70 0.0 0.0 0.00 0.00 0.00 91 1025.9
20260506093956 12 69 0.0 0.0 0.00 0.00 0.00 91 1026.0
20260506093455 12 70 0.0 0.0 0.00 0.00 0.00 91 1025.8
20260506092952 12 69 0.0 0.0 0.00 0.00 0.00 91 1026.0
20260506092450 12 63 0.0 0.0 0.00 0.00 0.00 90 1026.0
20260506091946 12 50 1.6 1.6 0.00 0.00 0.00 90 1025.8
20260506091444 12 73 1.6 1.6 0.00 0.00 0.00 90 1025.9
20260506090941 12 60 1.6 1.6 0.00 0.00 0.00 90 1025.8
20260506090439 12 61 1.6 1.6 0.00 0.00 0.00 89 1025.9
20260506085935 12 72 0.0 0.0 0.00 0.00 0.00 89 1025.9
20260506085432 13 70 1.6 1.6 0.00 0.00 0.00 89 1025.8
20260506084928 13 71 0.0 0.0 0.00 0.00 0.00 88 1025.8
20260506084426 13 115 1.6 1.6 0.00 0.00 0.00 88 1025.8
20260506083921 13 107 0.0 1.6 0.00 0.00 0.00 88 1025.9
20260506083419 13 68 1.6 1.6 0.00 0.00 0.00 88 1025.7
20260506082916 13 77 0.0 0.0 0.00 0.00 0.00 88 1025.8
20260506082414 13 158 1.6 3.2 0.00 0.00 0.00 88 1025.9
20260506081909 13 113 0.0 0.0 0.00 0.00 0.00 88 1026.0
20260506081408 13 166 0.0 1.6 0.00 0.00 0.00 88 1025.9
20260506080904 13 155 0.0 0.0 0.00 0.00 0.00 88 1025.6
20260506080402 13 36 1.6 1.6 0.00 0.00 0.00 88 1025.7
20260506073345 13 69 0.0 0.0 0.00 0.00 0.00 88 1025.8
20260506072842 13 53 0.0 0.0 0.00 0.00 0.00 87 1025.7
20260506072340 13 97 0.0 0.0 0.00 0.00 0.00 87 1025.6
20260506071837 13 72 0.0 0.0 0.00 0.00 0.00 87 1025.7
20260506071335 13 121 0.0 0.0 0.00 0.00 0.00 86 1025.7
20260506070831 13 196 3.2 3.2 0.00 0.00 0.00 86 1025.5
20260506070328 13 121 0.0 1.6 0.00 0.00 0.00 86 1025.5
20260506062306 13 118 1.6 1.6 0.00 0.03 0.03 85 1025.2
20260506061802 13 140 1.6 1.6 0.00 0.03 0.03 85 1025.1
20260506061259 13 226 1.6 3.2 0.00 0.03 0.03 85 1025.0
20260506060757 13 127 0.0 1.6 0.00 0.03 0.03 85 1025.2
20260506060254 13 104 0.0 0.0 0.00 0.03 0.03 85 1025.1
20260506051226 13 109 0.0 1.6 0.00 0.03 0.03 85 1024.7
20260506050724 13 123 1.6 1.6 0.00 0.03 0.03 85 1024.6
20260506050221 13 101 0.0 0.0 0.00 0.03 0.03 84 1024.7
20260506044712 13 138 1.6 1.6 0.00 0.03 0.03 84 1024.4
20260506044209 13 133 3.2 4.8 0.00 0.03 0.03 84 1024.7
20260506043706 13 297 3.2 4.8 0.00 0.03 0.03 84 1024.5
20260506043204 13 144 1.6 3.2 0.00 0.03 0.03 84 1024.4
20260506042703 13 123 0.0 1.6 0.00 0.03 0.03 84 1024.4
20260506042201 13 164 1.6 1.6 0.00 0.03 0.03 84 1024.2
20260506041659 13 127 1.6 3.2 0.00 0.03 0.03 84 1024.5
20260506041155 13 186 3.2 4.8 0.00 0.03 0.03 84 1024.2
20260506040653 13 164 3.2 4.8 0.00 0.03 0.03 84 1024.2
20260506040150 13 220 8.0 11.3 0.00 0.03 0.03 83 1024.1
20260506035647 13 177 3.2 3.2 0.00 0.03 0.03 83 1023.9
20260506035143 13 85 0.0 0.0 0.00 0.03 0.03 84 1023.8
20260506034635 13 229 1.6 3.2 0.00 0.03 0.03 84 1024.1
20260506034132 13 195 1.6 3.2 0.00 0.03 0.03 84 1023.9
20260506033629 13 122 1.6 1.6 0.00 0.03 0.03 84 1023.7
20260506033126 13 220 8.0 11.3 0.00 0.03 0.03 84 1023.6
20260506032623 13 215 3.2 4.8 0.00 0.03 0.03 84 1023.7
20260506032120 13 205 3.2 3.2 0.00 0.03 0.03 84 1023.7
20260506031617 13 202 4.8 6.4 0.00 0.03 0.03 84 1023.6
20260506031114 13 69 0.0 1.6 0.00 0.03 0.03 83 1023.5
20260506030613 13 152 1.6 3.2 0.00 0.03 0.03 83 1023.6
20260506030109 13 213 4.8 9.7 0.00 0.03 0.03 83 1023.6
20260506025606 13 221 4.8 6.4 0.00 0.03 0.03 83 1023.4
20260506025102 13 191 3.2 6.4 0.00 0.03 0.03 83 1023.3
20260506024559 13 236 3.2 3.2 0.00 0.03 0.03 83 1023.3
20260506024050 13 207 3.2 4.8 0.00 0.03 0.03 83 1023.2
20260506023546 13 253 3.2 4.8 0.00 0.03 0.03 83 1023.1
20260506023043 14 245 6.4 9.7 0.00 0.03 0.03 83 1023.0
20260506022541 14 184 3.2 4.8 0.00 0.03 0.03 82 1023.1
20260506022039 15 238 3.2 4.8 0.00 0.03 0.03 82 1023.1
20260506021536 15 123 3.2 3.2 0.00 0.03 0.03 81 1023.2
20260506021033 15 199 3.2 6.4 0.00 0.03 0.03 81 1023.2
20260506020531 15 266 6.4 9.7 0.00 0.03 0.03 79 1023.2
20260506020028 15 188 3.2 4.8 0.00 0.03 0.03 79 1023.0